1520125201.25,10725,7.63,71472.5,-15.97,-48.63,-48.77,0,*6E
1520125202.49,10726,7.63,71478.8,-15.99,-48.13,-48.21,0,*67
1520125203.74,10727,7.63,71480.5,-15.97,-48.55,-48.63,0,*6C
1520125205.0,10728,7.63,71472.5,-15.97,-47.79,-47.99,0,*68
1520125206.25,10729,7.63,71474.3,-15.97,-48.21,-48.41,0,*61
1520125207.5,10730,7.63,71476.5,-15.97,-48.35,-48.41,0,*6C
1520125208.78,10731,7.63,71476.3,-15.99,-48.13,-48.13,0,*60
1520125210.02,10732,7.63,71478.0,-15.97,-48.21,-48.21,0,*6D
1520125211.32,10733,7.63,71478.0,-15.97,-48.13,-48.35,0,*68
1520125212.54,10734,7.63,71478.0,-15.99,-48.41,-48.63,0,*65
1520125213.8,10735,7.63,71478.8,-15.97,-48.35,-48.55,0,*6C
1520125215.07,10736,7.63,71476.8,-15.97,-48.21,-48.35,0,*6C
1520125216.32,10737,7.63,71478.8,-15.97,-48.21,-48.21,0,*68
1520125217.58,10738,7.63,71478.8,-15.97,-47.93,-47.99,0,*6D
1520125218.82,10739,7.63,71480.0,-15.95,-47.85,-47.93,0,*63
1520125220.11,10740,7.63,71478.5,-15.97,-47.93,-47.93,0,*68
1520125221.38,10741,7.63,71480.0,-15.97,-47.99,-48.13,0,*64
1520125222.63,10742,7.63,71478.0,-15.95,-48.07,-48.27,0,*6A
1520125223.89,10743,7.63,71476.5,-15.95,-48.27,-48.35,0,*6A
1520125225.16,10744,7.63,71474.8,-15.95,-48.13,-48.35,0,*6A
1520125226.45,10745,7.63,71476.3,-15.97,-48.35,-48.35,0,*6D
1520125227.72,10746,7.63,71476.3,-15.97,-48.13,-47.99,0,*63
1520125228.98,10747,7.63,71478.8,-15.97,-48.21,-48.35,0,*6A
1520125230.25,10748,7.63,71478.3,-15.95,-48.27,-48.27,0,*62
1520125231.52,10749,7.63,71478.5,-15.93,-48.07,-47.93,0,*67
1520125232.77,10750,7.63,71482.3,-15.95,-48.07,-48.13,0,*6E
1520125234.02,10751,7.63,71478.3,-15.95,-48.07,-48.27,0,*68
1520125235.28,10752,7.63,71482.3,-15.95,-47.93,-47.93,0,*69
1520125236.53,10753,7.63,71482.3,-15.95,-47.93,-48.07,0,*6A
1520125237.8,10754,7.63,71480.0,-15.93,-47.93,-48.07,0,*6B
1520125239.07,10755,7.63,71478.3,-15.93,-47.93,-48.07,0,*6A
1520125240.34,10756,7.63,71478.5,-15.93,-48.27,-48.49,0,*63
1520125241.61,10757,7.63,71476.8,-15.95,-48.13,-48.13,0,*6C
1520125242.88,10758,7.63,71476.5,-15.95,-48.13,-48.27,0,*64
1520125244.13,10759,7.63,71480.0,-15.95,-48.07,-48.27,0,*60
1520125245.4,10760,7.63,71478.5,-15.93,-48.07,-48.35,0,*6F
1520125246.65,10761,7.63,71480.0,-15.95,-48.13,-48.49,0,*66
1520125247.92,10762,7.63,71482.5,-15.93,-48.07,-48.27,0,*6E
1520125249.17,10763,7.63,71478.5,-15.93,-48.07,-48.07,0,*6D
1520125250.44,10764,7.63,71476.8,-15.95,-48.13,-48.27,0,*6B
1520125251.72,10765,7.63,71476.8,-15.93,-48.07,-48.13,0,*6E
1520125253.01,10766,7.63,71478.5,-15.93,-48.27,-48.35,0,*6B
1520125254.31,10767,7.63,71474.8,-15.93,-48.13,-48.35,0,*6D
1520125255.58,10768,7.63,71474.5,-15.95,-48.13,-48.13,0,*60
1520125256.86,10769,7.63,71478.0,-15.93,-48.07,-48.13,0,*62
1520125258.15,10770,7.63,71480.3,-15.93,-48.13,-48.35,0,*6B
1520125259.42,10771,7.63,71480.3,-15.93,-48.35,-48.55,0,*68
1520125260.68,10772,7.63,71486.0,-15.93,-48.35,-48.49,0,*66
1520125261.92,10773,7.63,71486.3,-15.95,-48.27,-48.49,0,*62
1520125263.16,10774,7.63,71482.3,-15.95,-47.93,-47.85,0,*6A
1520125264.44,10775,7.63,71482.8,-15.95,-48.13,-48.35,0,*68
1520125265.69,10776,7.63,71482.0,-15.93,-48.35,-48.49,0,*62
1520125266.91,10777,7.63,71480.8,-15.95,-48.49,-48.49,0,*6E
1520125268.15,10778,7.63,71480.8,-15.95,-48.07,-48.35,0,*60
1520125269.42,10779,7.63,71482.8,-15.93,-48.35,-48.55,0,*60
1520125270.69,10780,7.63,71482.5,-15.95,-48.27,-48.35,0,*65
1520125271.98,10781,7.63,71476.3,-15.93,-48.35,-48.69,0,*68
1520125273.21,10782,7.63,71480.8,-15.95,-48.35,-48.49,0,*6F
1520125274.45,10783,7.63,71482.0,-15.95,-48.35,-48.55,0,*63
1520125275.7,10784,7.63,71482.8,-15.95,-48.07,-48.13,0,*67
1520125277.0,10785,7.63,71480.0,-15.93,-48.13,-48.27,0,*62
1520125278.25,10786,7.63,71482.3,-15.95,-48.07,-48.27,0,*62
1520125279.52,10787,7.63,71480.0,-15.95,-48.13,-48.35,0,*65
1520125280.74,10788,7.63,71484.5,-15.95,-48.49,-48.55,0,*63
1520125281.99,10789,7.63,71482.0,-15.95,-48.07,-48.13,0,*6A
1520125283.22,10790,7.63,71478.0,-15.95,-47.85,-47.85,0,*67
1520125284.46,10791,7.63,71476.5,-15.95,-47.93,-47.85,0,*61
1520125285.7,10792,7.63,71482.5,-15.95,-48.07,-47.93,0,*67
1520125286.93,10793,7.63,71482.0,-15.95,-48.07,-48.07,0,*64
1520125288.17,10794,7.63,71478.5,-15.95,-48.27,-48.49,0,*6B
1520125289.42,10795,7.63,71476.5,-15.95,-48.07,-48.27,0,*60
1520125290.64,10796,7.63,71478.8,-15.95,-48.07,-48.07,0,*61
1520125291.91,10797,7.63,71476.8,-15.93,-48.07,-47.93,0,*64
1520125293.21,10798,7.63,71478.0,-15.93,-48.13,-48.35,0,*6D
1520125294.45,10799,7.63,71478.0,-15.95,-47.85,-47.93,0,*69
1520125295.73,10800,7.63,71474.8,-15.93,-47.93,-48.07,0,*65
1520125296.98,10801,7.63,71476.3,-15.95,-48.07,-48.13,0,*65
1520125298.25,10802,7.63,71478.0,-15.95,-48.13,-48.27,0,*64
1520125299.49,10803,7.63,71480.0,-15.95,-48.55,-48.69,0,*6D
1520125300.72,10804,7.63,71480.8,-15.95,-48.49,-48.55,0,*68
1520125301.96,10805,7.63,71478.3,-15.95,-48.07,-48.27,0,*66
1520125303.26,10806,7.63,71472.5,-15.93,-48.13,-48.35,0,*65
1520125304.51,10807,7.63,71474.8,-15.95,-48.55,-48.69,0,*69
1520125305.72,10808,7.63,71474.8,-15.95,-48.49,-48.49,0,*69
1520125306.97,10809,7.63,71474.5,-15.93,-48.49,-48.55,0,*63
1520125308.24,10810,7.63,71476.0,-15.95,-48.69,-48.77,0,*6F
1520125309.47,10811,7.63,71476.0,-15.95,-48.35,-48.49,0,*6A
1520125310.75,10812,7.63,71474.5,-15.95,-48.13,-48.27,0,*65
1520125311.98,10813,7.63,71470.5,-15.95,-48.27,-48.49,0,*6B
1520125313.25,10814,7.63,71468.8,-15.95,-48.27,-48.35,0,*67
1520125314.49,10815,7.63,71472.3,-15.95,-48.35,-48.55,0,*63
1520125315.79,10816,7.63,71468.8,-15.97,-48.13,-48.13,0,*64
1520125317.05,10817,7.63,71472.5,-15.95,-48.35,-48.69,0,*6E
1520125318.29,10818,7.63,71468.5,-15.95,-48.13,-48.49,0,*67
1520125319.57,10819,7.63,71472.8,-15.95,-48.69,-48.69,0,*69
1520125320.84,10820,7.63,71472.0,-15.97,-48.55,-48.77,0,*61
1520125322.08,10821,7.63,71472.8,-15.97,-48.55,-48.63,0,*65
1520125323.35,10822,7.63,71474.5,-15.97,-48.63,-48.77,0,*66
1520125324.57,10823,7.63,71474.8,-15.99,-48.55,-48.63,0,*69
1520125325.79,10824,7.63,71474.3,-15.99,-48.41,-48.63,0,*6B
1520125327.02,10825,7.63,71474.5,-15.99,-48.35,-48.41,0,*69
1520125328.29,10826,7.63,71474.8,-15.97,-48.77,-48.83,0,*6C
1520125329.56,10827,7.63,71476.5,-15.97,-48.63,-48.77,0,*63
1520125330.78,10828,7.63,71472.3,-15.99,-48.41,-48.63,0,*67
1520125332.07,10829,7.63,71472.3,-15.97,-48.77,-48.77,0,*68
1520125333.32,10830,7.63,71472.5,-15.99,-48.77,-48.83,0,*65
1520125334.56,10831,7.63,71478.0,-15.97,-48.63,-48.83,0,*6F
1520125335.83,10832,7.63,71476.5,-15.99,-48.77,-48.77,0,*6C
1520125337.07,10833,7.63,71472.5,-15.99,-48.35,-48.41,0,*6E
1520125338.33,10834,7.63,71472.5,-15.97,-48.63,-48.77,0,*61
1520125339.54,10835,7.63,71472.5,-15.99,-48.83,-48.97,0,*6E
1520125340.76,10836,7.63,71480.0,-15.99,-48.55,-48.63,0,*6D
1520125341.98,10837,7.63,71476.8,-15.99,-48.41,-48.63,0,*69
1520125343.2,10838,7.63,71472.3,-15.99,-48.55,-48.63,0,*63
1520125344.45,10839,7.63,71474.8,-15.99,-48.63,-48.77,0,*62
1520125345.68,10840,7.63,71474.3,-16.05,-48.41,-48.49,0,*67
1520125346.92,10841,7.63,71476.0,-15.99,-48.63,-48.77,0,*6D
1520125348.19,10842,7.63,71476.0,-16.01,-48.21,-48.27,0,*6F
1520125349.46,10843,7.63,71478.8,-16.01,-47.85,-47.79,0,*6B
1520125350.73,10844,7.63,71474.3,-16.01,-48.41,-48.27,0,*6F
1520125351.98,10845,7.63,71480.0,-16.01,-48.21,-48.21,0,*6E
1520125353.21,10846,7.63,71478.3,-16.01,-48.41,-48.49,0,*65
1520125354.46,10847,7.63,71478.5,-15.99,-48.13,-48.21,0,*6F
1520125355.71,10848,7.63,71482.5,-15.99,-48.21,-48.35,0,*64
1520125356.95,10849,7.63,71476.3,-15.99,-48.21,-48.35,0,*65
1520125358.17,10850,7.63,71476.5,-15.99,-48.55,-48.63,0,*6D
1520125359.39,10851,7.63,71478.3,-15.99,-48.21,-48.21,0,*69
1520125360.64,10852,7.63,71476.5,-16.01,-48.49,-48.63,0,*60
1520125361.88,10853,7.63,71476.0,-15.99,-48.35,-48.55,0,*6D
1520125363.18,10854,7.63,71472.8,-16.01,-48.69,-48.69,0,*6E
1520125364.4,10855,7.63,71472.8,-15.99,-48.41,-48.55,0,*68
1520125365.62,10856,7.63,71474.0,-15.99,-48.55,-48.63,0,*6B
1520125366.87,10857,7.63,71476.3,-15.99,-48.55,-48.77,0,*6F
1520125368.11,10858,7.63,71476.3,-15.99,-48.63,-48.77,0,*65
1520125369.38,10859,7.63,71478.0,-16.05,-48.69,-48.83,0,*63
1520125370.62,10860,7.63,71482.5,-16.01,-48.63,-48.83,0,*67
1520125371.86,10861,7.63,71480.8,-16.01,-48.63,-48.83,0,*66
1520125373.08,10862,7.63,71482.0,-15.99,-48.55,-48.63,0,*6C
1520125374.34,10863,7.63,71480.0,-16.01,-48.27,-48.41,0,*6A
1520125375.61,10864,7.63,71472.5,-16.01,-48.27,-48.41,0,*6D
1520125376.85,10865,7.63,71472.8,-16.01,-48.49,-48.83,0,*6A
1520125378.12,10866,7.63,71474.0,-16.01,-48.69,-48.83,0,*6B
1520125379.36,10867,7.63,71478.8,-16.05,-48.63,-48.83,0,*64
1520125380.59,10868,7.63,71478.3,-16.01,-48.41,-48.49,0,*69
1520125381.83,10869,7.63,71472.8,-16.05,-48.41,-48.63,0,*64
1520125383.1,10870,7.63,71468.3,-16.01,-48.49,-48.69,0,*6A
1520125384.34,10871,7.63,71468.3,-16.01,-48.63,-48.83,0,*67
1520125385.6,10872,7.63,71466.5,-16.05,-48.27,-48.49,0,*66
1520125386.89,10873,7.63,71468.3,-16.05,-48.69,-48.69,0,*6F
1520125388.16,10874,7.63,71476.3,-16.05,-48.69,-48.83,0,*6C
1520125389.46,10875,7.63,71474.3,-16.05,-48.69,-48.69,0,*69
1520125390.72,10876,7.63,71476.8,-16.05,-48.63,-48.69,0,*60
1520125391.96,10877,7.63,71478.0,-16.05,-48.83,-48.83,0,*6B
1520125393.19,10878,7.63,71474.8,-16.01,-48.49,-48.49,0,*60
1520125394.46,10879,7.63,71474.5,-16.05,-48.21,-48.27,0,*63
1520125395.73,10880,7.63,71468.0,-16.05,-48.07,-48.27,0,*61
1520125396.97,10881,7.63,71464.0,-16.05,-48.41,-48.83,0,*6C
1520125398.21,10882,7.63,71470.0,-16.05,-48.49,-48.63,0,*69
1520125399.44,10883,7.63,71470.8,-16.05,-48.41,-48.41,0,*60
1520125400.69,10884,7.63,71472.3,-16.05,-48.21,-48.07,0,*63
1520125401.93,10885,7.63,71480.8,-16.01,-48.21,-48.41,0,*64
1520125403.17,10886,7.63,71476.5,-16.01,-48.49,-48.63,0,*69
1520125404.41,10887,7.63,71478.0,-16.05,-48.49,-48.49,0,*64
1520125405.67,10888,7.63,71478.3,-16.05,-48.63,-48.69,0,*61
1520125406.94,10889,7.63,71478.0,-16.01,-48.63,-48.69,0,*64
1520125408.21,10890,7.63,71476.3,-16.05,-48.21,-48.27,0,*64
1520125409.46,10891,7.63,71480.5,-16.05,-48.27,-48.49,0,*6B
1520125410.73,10892,7.63,71480.5,-16.05,-48.27,-48.63,0,*60
1520125412.0,10893,7.63,71482.8,-16.01,-48.69,-48.83,0,*61
1520125413.26,10894,7.63,71476.0,-16.05,-48.63,-48.69,0,*6C
1520125414.5,10895,7.63,71474.5,-16.05,-48.41,-48.41,0,*67
1520125415.74,10896,7.63,71478.5,-16.05,-48.49,-48.63,0,*6C
1520125417.01,10897,7.63,71480.5,-16.01,-48.27,-48.63,0,*61
1520125418.25,10898,7.63,71478.5,-16.05,-48.21,-48.41,0,*6C
1520125419.52,10899,7.63,71476.8,-16.01,-48.21,-48.27,0,*69
1520125420.78,10900,7.63,71478.3,-16.05,-48.27,-48.41,0,*6A
1520125422.01,10901,7.63,71476.5,-16.05,-48.41,-48.49,0,*63
1520125423.25,10902,7.63,71474.5,-16.01,-48.21,-48.21,0,*6C
1520125424.5,10903,7.63,71478.5,-16.05,-48.07,-48.41,0,*6B
1520125425.74,10904,7.63,71476.3,-16.01,-48.41,-48.63,0,*6A
1520125426.98,10905,7.63,71476.0,-16.05,-48.49,-48.63,0,*67
1520125428.22,10906,7.63,71480.8,-16.01,-48.49,-48.49,0,*68
1520125429.46,10907,7.63,71482.8,-16.01,-48.49,-48.63,0,*61
1520125430.73,10908,7.63,71476.5,-16.05,-48.21,-48.27,0,*64
1520125431.97,10909,7.63,71474.3,-16.01,-48.21,-48.21,0,*67
1520125433.21,10910,7.63,71468.5,-16.05,-48.49,-48.63,0,*63
1520125434.45,10911,7.63,71466.0,-16.01,-48.41,-48.49,0,*66
1520125435.69,10912,7.63,71474.8,-16.01,-48.41,-48.63,0,*6D
1520125436.93,10913,7.63,71472.8,-16.05,-48.41,-48.63,0,*68
1520125438.2,10914,7.63,71472.0,-16.05,-48.49,-48.69,0,*6D
1520125439.44,10915,7.63,71470.3,-16.01,-48.49,-48.63,0,*62
1520125440.73,10916,7.63,71470.3,-16.01,-48.27,-48.27,0,*69
1520125441.99,10917,7.63,71470.3,-16.01,-48.27,-48.49,0,*60
1520125443.23,10918,7.63,71470.3,-16.01,-48.41,-48.63,0,*67
1520125444.47,10919,7.63,71472.3,-16.01,-48.41,-48.63,0,*66
1520125445.72,10920,7.63,71472.3,-16.01,-48.41,-48.63,0,*6C
1520125446.95,10921,7.63,71474.8,-16.05,-48.41,-48.49,0,*61
1520125448.19,10922,7.63,71478.3,-16.05,-48.63,-48.83,0,*64
1520125449.45,10923,7.63,71472.8,-16.05,-48.27,-48.41,0,*6B
1520125450.69,10924,7.63,71478.3,-16.05,-48.07,-48.21,0,*68
1520125451.94,10925,7.63,71474.5,-16.05,-48.63,-48.63,0,*6D
1520125453.17,10926,7.63,71480.0,-16.05,-48.49,-48.49,0,*6E
1520125454.4,10927,7.63,71476.5,-16.05,-48.41,-48.49,0,*67
1520125455.64,10928,7.63,71472.3,-16.01,-48.41,-48.49,0,*6C
1520125456.92,10929,7.63,71478.8,-16.05,-48.27,-48.27,0,*61
1520125458.16,10930,7.63,71476.5,-16.05,-48.49,-48.63,0,*61
1520125459.41,10931,7.63,71476.8,-16.01,-48.49,-48.63,0,*64
1520125460.67,10932,7.63,71474.0,-16.05,-48.63,-48.69,0,*61
1520125461.91,10933,7.63,71472.3,-16.01,-48.41,-48.49,0,*66
1520125463.15,10934,7.63,71474.5,-16.05,-48.49,-48.63,0,*65
1520125464.44,10935,7.63,71478.5,-16.05,-48.69,-48.69,0,*6C
1520125465.71,10936,7.63,71478.5,-16.01,-48.63,-48.69,0,*61
1520125466.95,10937,7.63,71478.0,-16.05,-48.63,-48.63,0,*6E
1520125468.2,10938,7.63,71476.0,-15.99,-48.35,-48.55,0,*61
1520125469.44,10939,7.63,71476.3,-16.01,-48.63,-48.83,0,*6A
1520125470.67,10940,7.63,71476.0,-16.05,-48.63,-48.83,0,*60
1520125471.92,10941,7.63,71474.3,-16.05,-48.41,-48.63,0,*6F
1520125473.18,10942,7.63,71478.5,-16.05,-48.69,-48.83,0,*68
1520125474.42,10943,7.63,71478.8,-16.05,-48.41,-48.49,0,*65
1520125475.68,10944,7.63,71476.5,-16.01,-48.27,-48.49,0,*66
1520125476.91,10945,7.63,71480.8,-16.05,-48.83,-48.83,0,*6B
1520125478.15,10946,7.63,71474.8,-16.01,-48.41,-48.49,0,*64
1520125479.41,10947,7.63,71474.5,-16.05,-48.21,-48.27,0,*6F
1520125480.65,10948,7.63,71478.3,-16.05,-48.49,-48.83,0,*60
1520125481.91,10949,7.63,71480.3,-16.05,-48.27,-48.49,0,*6F
1520125483.17,10950,7.63,71480.8,-16.05,-48.27,-48.41,0,*6F
1520125484.43,10951,7.63,71478.0,-16.05,-48.27,-48.41,0,*6E
1520125485.71,10952,7.63,71474.8,-16.05,-48.27,-48.27,0,*6D
1520125486.97,10953,7.63,71472.5,-16.05,-48.27,-48.41,0,*6C
1520125488.21,10954,7.63,71472.5,-16.05,-48.49,-48.63,0,*63
1520125489.46,10955,7.63,71476.8,-16.05,-48.21,-48.07,0,*6E
1520125490.7,10956,7.63,71476.3,-16.05,-48.07,-47.99,0,*61
1520125491.93,10957,7.63,71480.5,-16.05,-48.41,-48.49,0,*60
1520125493.19,10958,7.63,71478.8,-16.01,-48.27,-48.41,0,*63
1520125494.44,10959,7.63,71476.8,-16.01,-48.21,-48.41,0,*64
1520125495.7,10960,7.63,71478.5,-16.05,-47.99,-47.79,0,*62
1520125496.95,10961,7.63,71480.0,-16.05,-48.07,-48.21,0,*69
1520125498.17,10962,7.63,71478.5,-16.07,-48.07,-48.07,0,*6C
1520125499.42,10963,7.63,71478.0,-16.01,-48.63,-48.63,0,*6B
1520125500.69,10964,7.63,71478.0,-16.01,-48.63,-48.69,0,*66
1520125501.98,10965,7.63,71474.5,-16.01,-48.27,-48.27,0,*6D
1520125503.22,10966,7.63,71478.5,-16.01,-48.41,-48.41,0,*6E
1520125504.46,10967,7.63,71476.0,-16.01,-48.41,-48.63,0,*6F
1520125505.71,10968,7.63,71474.8,-16.01,-48.07,-48.21,0,*64
1520125506.97,10969,7.63,71474.0,-16.01,-48.27,-48.63,0,*61
1520125508.19,10970,7.63,71476.8,-15.99,-48.21,-48.41,0,*6D
1520125509.45,10971,7.63,71478.0,-16.05,-48.27,-48.49,0,*64
1520125510.71,10972,7.63,71478.8,-16.05,-48.49,-48.69,0,*6D
1520125511.98,10973,7.63,71476.8,-16.05,-48.69,-48.83,0,*6A
1520125513.25,10974,7.63,71478.3,-16.01,-48.63,-48.69,0,*67
1520125514.51,10975,7.63,71474.8,-16.05,-48.27,-48.41,0,*68
1520125515.75,10976,7.63,71478.5,-16.01,-48.49,-48.49,0,*6F
1520125516.99,10977,7.63,71472.8,-16.01,-48.21,-48.41,0,*68
1520125518.23,10978,7.63,71476.0,-16.05,-48.21,-48.21,0,*65
1520125519.5,10979,7.63,71478.5,-16.01,-48.21,-48.27,0,*66
1520125520.77,10980,7.63,71478.0,-16.01,-48.07,-48.27,0,*64
1520125522.01,10981,7.63,71478.5,-16.01,-47.99,-47.99,0,*67
1520125523.28,10982,7.63,71476.3,-16.05,-48.21,-48.27,0,*66
1520125524.52,10983,7.63,71480.5,-16.01,-47.99,-47.99,0,*65
1520125525.79,10984,7.63,71478.0,-16.01,-47.85,-47.79,0,*61
1520125527.05,10985,7.63,71478.3,-16.01,-47.79,-47.57,0,*6F
1520125528.3,10986,7.63,71478.8,-16.01,-47.85,-47.99,0,*6D
1520125529.56,10987,7.63,71476.5,-15.99,-47.79,-47.93,0,*67
1520125530.82,10988,7.63,71476.3,-15.99,-47.93,-47.93,0,*6C
1520125532.09,10989,7.63,71476.3,-15.97,-48.21,-48.35,0,*66
1520125533.36,10990,7.63,71478.0,-15.99,-47.93,-47.71,0,*69
1520125534.61,10991,7.63,71476.0,-15.99,-48.13,-48.21,0,*65
1520125535.85,10992,7.63,71476.5,-15.99,-48.35,-48.55,0,*61
1520125537.11,10993,7.63,71476.8,-15.97,-48.35,-48.41,0,*6B
1520125538.35,10994,7.63,71478.3,-15.99,-48.21,-48.35,0,*64
1520125539.62,10995,7.63,71480.0,-15.97,-48.55,-48.77,0,*6E
1520125540.84,10996,7.63,71474.8,-15.99,-48.41,-48.55,0,*66
1520125542.09,10997,7.63,71474.5,-15.99,-48.13,-48.41,0,*65
1520125543.33,10998,7.63,71476.8,-15.99,-48.21,-48.35,0,*68
1520125544.6,10999,7.63,71476.5,-15.97,-48.21,-48.35,0,*67
1520125545.87,11000,7.63,71478.0,-15.97,-48.21,-48.35,0,*6F
1520125547.12,11001,7.63,71476.8,-15.99,-48.13,-48.21,0,*64
1520125548.36,11002,7.63,71480.8,-15.99,-48.21,-48.35,0,*63
1520125549.63,11003,7.63,71476.3,-15.97,-48.13,-48.21,0,*68
1520125550.88,11004,7.63,71476.8,-15.99,-48.21,-48.35,0,*65
1520125552.12,11005,7.63,71476.8,-15.99,-48.21,-48.35,0,*64
1520125553.35,11006,7.63,71478.5,-15.99,-48.21,-48.21,0,*62
1520125554.62,11007,7.63,71478.3,-15.97,-48.21,-48.35,0,*68
1520125555.86,11008,7.63,71478.0,-15.99,-48.13,-48.21,0,*6D
1520125557.11,11009,7.63,71480.0,-15.97,-48.21,-48.41,0,*65
1520125558.37,11010,7.63,71476.0,-15.97,-48.21,-48.35,0,*6E
1520125559.6,11011,7.63,71478.0,-15.99,-48.55,-48.63,0,*61
1520125560.82,11012,7.63,71480.8,-15.99,-48.41,-48.55,0,*62
1520125562.06,11013,7.63,71480.5,-15.97,-48.21,-48.21,0,*68
1520125563.29,11014,7.63,71484.0,-15.99,-48.41,-48.55,0,*64
1520125564.56,11015,7.63,71482.0,-15.99,-48.77,-48.77,0,*60
1520125565.8,11016,7.63,71478.5,-15.97,-48.41,-48.63,0,*6D
1520125567.05,11017,7.63,71480.5,-15.99,-48.55,-48.77,0,*62
1520125568.29,11018,7.63,71480.8,-15.99,-48.77,-48.63,0,*68
1520125569.54,11019,7.63,71476.5,-15.99,-48.13,-48.21,0,*6D
1520125570.76,11020,7.63,71482.8,-15.99,-48.41,-48.63,0,*66
1520125572.0,11021,7.63,71482.5,-16.01,-48.49,-48.63,0,*6D
1520125573.24,11022,7.63,71482.0,-16.01,-48.41,-48.49,0,*6E
1520125574.5,11023,7.63,71484.8,-16.01,-48.27,-48.41,0,*67
1520125575.74,11024,7.63,71482.0,-16.05,-48.49,-48.49,0,*64
1520125576.98,11025,7.63,71482.5,-16.01,-48.49,-48.63,0,*69
1520125578.25,11026,7.63,71484.5,-16.01,-48.69,-48.83,0,*66
1520125579.49,11027,7.63,71480.3,-16.01,-48.41,-48.49,0,*6B
1520125580.78,11028,7.63,71480.8,-16.01,-48.27,-48.27,0,*6C
1520125582.02,11029,7.63,71478.8,-16.05,-48.21,-48.41,0,*6F
1520125583.31,11030,7.63,71482.3,-16.01,-48.27,-48.27,0,*65
1520125584.57,11031,7.63,71484.0,-16.05,-48.27,-48.63,0,*60
1520125585.84,11032,7.63,71484.3,-16.01,-48.21,-48.27,0,*61
1520125587.11,11033,7.63,71480.8,-16.01,-48.69,-48.83,0,*62
1520125588.37,11034,7.56,71478.3,-16.05,-48.83,-48.91,0,*66
1520125589.63,11035,7.63,71480.5,-16.05,-48.27,-48.63,0,*64
1520125590.87,11036,7.63,71482.5,-16.05,-48.49,-48.63,0,*6F
1520125592.13,11037,7.63,71482.5,-16.01,-48.27,-48.49,0,*6A
1520125593.37,11038,7.63,71480.5,-16.01,-48.41,-48.49,0,*65
1520125594.62,11039,7.63,71484.8,-16.01,-48.27,-48.49,0,*64
1520125595.89,11040,7.63,71480.0,-16.01,-48.27,-48.41,0,*62
1520125597.15,11041,7.63,71482.3,-16.05,-48.27,-48.41,0,*67
1520125598.41,11042,7.63,71482.8,-16.01,-48.27,-48.41,0,*60
1520125599.65,11043,7.63,71482.5,-16.05,-48.21,-48.41,0,*63
1520125600.89,11044,7.63,71484.0,-16.01,-48.21,-48.41,0,*60
1520125602.14,11045,7.63,71486.8,-16.01,-48.21,-48.41,0,*61
1520125603.4,11046,7.63,71482.3,-16.01,-48.21,-48.27,0,*62
1520125604.68,11047,7.63,71484.3,-16.01,-48.07,-48.27,0,*67
1520125605.95,11048,7.63,71486.5,-16.01,-48.21,-48.27,0,*6C
1520125607.19,11049,7.63,71484.0,-15.99,-48.35,-48.55,0,*6F
1520125608.43,11050,7.63,71488.8,-16.01,-48.49,-48.63,0,*6B
1520125609.7,11051,7.63,71480.5,-16.01,-48.21,-48.27,0,*64
1520125610.97,11052,7.63,71480.0,-16.05,-48.21,-48.27,0,*63
1520125612.23,11053,7.63,71482.0,-16.01,-48.49,-48.69,0,*62
1520125613.48,11054,7.63,71484.3,-16.01,-48.41,-48.63,0,*67
1520125614.75,11055,7.63,71482.5,-16.01,-48.21,-48.27,0,*60
1520125615.99,11056,7.63,71486.5,-16.05,-47.99,-48.07,0,*69
1520125617.24,11057,7.63,71484.5,-16.01,-48.07,-48.07,0,*64
1520125618.49,11058,7.63,71484.3,-16.01,-48.07,-48.07,0,*6B
1520125619.76,11059,7.63,71486.8,-16.01,-48.21,-48.27,0,*6C
1520125621.01,11060,7.63,71484.5,-16.01,-48.21,-48.21,0,*60
1520125622.26,11061,7.63,71486.8,-16.01,-48.21,-48.07,0,*65
1520125623.49,11062,7.56,71482.3,-16.01,-48.41,-48.49,0,*6A
1520125624.74,11063,7.63,71484.5,-16.01,-48.07,-48.21,0,*67
1520125625.98,11064,7.63,71484.3,-16.01,-48.41,-48.63,0,*64
1520125627.25,11065,7.63,71488.0,-16.01,-48.49,-48.69,0,*67
1520125628.5,11066,7.63,71486.0,-16.01,-47.99,-48.07,0,*6E
1520125629.74,11067,7.63,71482.0,-15.99,-48.21,-48.35,0,*60
1520125631.0,11068,7.63,71484.5,-16.01,-48.27,-48.49,0,*60
1520125632.24,11069,7.63,71486.8,-16.01,-48.21,-48.49,0,*67
1520125633.48,11070,7.63,71484.3,-16.05,-48.41,-48.49,0,*6D
1520125634.72,11071,7.63,71490.5,-16.01,-48.21,-48.21,0,*60
1520125635.97,11072,7.63,71488.0,-16.01,-48.07,-48.21,0,*67
1520125637.24,11073,7.63,71488.3,-16.01,-48.07,-48.27,0,*60
1520125638.54,11074,7.63,71486.0,-16.01,-47.79,-47.79,0,*65
1520125639.8,11075,7.63,71488.0,-15.97,-47.79,-47.99,0,*66
1520125641.06,11076,7.63,71486.0,-15.99,-47.71,-47.71,0,*65
1520125642.31,11077,7.63,71488.8,-16.01,-48.07,-48.21,0,*62
1520125643.53,11078,7.63,71486.3,-15.99,-47.99,-48.21,0,*67
1520125644.78,11079,7.63,71488.8,-15.99,-47.99,-48.13,0,*67
1520125646.04,11080,7.63,71490.3,-15.99,-47.79,-47.71,0,*64
1520125647.25,11081,7.63,71484.8,-15.99,-47.65,-47.65,0,*6D
1520125648.49,11082,7.63,71486.8,-15.97,-47.99,-47.99,0,*60
1520125649.76,11083,7.63,71486.3,-15.97,-47.93,-47.99,0,*6B
1520125651.02,11084,7.63,71484.5,-15.97,-48.21,-48.35,0,*63
1520125652.3,11085,7.56,71482.0,-15.99,-48.13,-48.13,0,*69
1520125653.54,11086,7.63,71484.0,-15.97,-48.41,-48.55,0,*61
1520125654.8,11087,7.63,71484.3,-15.97,-48.35,-48.41,0,*66
1520125656.07,11088,7.63,71484.0,-15.97,-48.21,-48.35,0,*6F
1520125657.31,11089,7.63,71486.8,-15.97,-48.41,-48.63,0,*6B
1520125658.61,11090,7.63,71484.5,-15.97,-48.13,-48.35,0,*67
1520125659.84,11091,7.63,71488.8,-15.99,-48.21,-48.55,0,*6F
1520125661.06,11092,7.63,71488.8,-15.99,-48.55,-48.63,0,*6A
1520125662.29,11093,7.63,71490.5,-15.99,-48.35,-48.41,0,*6D
1520125663.51,11094,7.63,71490.3,-15.99,-48.55,-48.63,0,*6C
1520125664.74,11095,7.56,71480.8,-15.99,-48.21,-48.55,0,*6B
1520125666.02,11096,7.63,71484.3,-15.97,-48.35,-48.35,0,*65
1520125667.26,11097,7.63,71482.0,-15.99,-48.35,-48.41,0,*69
1520125668.48,11098,7.63,71482.3,-15.99,-48.41,-48.63,0,*65
1520125669.72,11099,7.56,71480.5,-15.99,-48.13,-48.41,0,*63
1520125670.97,11100,7.63,71484.3,-15.99,-48.13,-48.41,0,*62
1520125672.21,11101,7.63,71486.0,-15.99,-47.99,-48.13,0,*69
1520125673.46,11102,7.63,71482.0,-15.99,-47.99,-48.13,0,*6A
1520125674.76,11103,7.63,71480.3,-15.97,-48.13,-48.13,0,*68
1520125675.98,11104,7.63,71482.3,-15.99,-48.21,-48.41,0,*67
1520125677.25,11105,7.63,71480.8,-15.99,-48.13,-48.35,0,*64
1520125678.46,11106,7.63,71482.8,-15.99,-48.41,-48.41,0,*63
1520125679.74,11107,7.63,71480.3,-15.99,-48.13,-48.13,0,*62
1520125680.96,11108,7.63,71486.0,-15.99,-48.21,-48.41,0,*6B
1520125682.2,11109,7.63,71490.0,-15.99,-47.99,-48.13,0,*61
1520125683.44,11110,7.63,71484.5,-15.97,-48.41,-48.41,0,*6A
1520125684.69,11111,7.63,71484.0,-15.99,-48.21,-48.35,0,*60
1520125685.93,11112,7.56,71476.5,-15.99,-48.13,-48.41,0,*61
1520125687.17,11113,7.63,71484.0,-15.99,-48.35,-48.55,0,*61
1520125688.42,11114,7.63,71486.0,-15.99,-48.55,-48.77,0,*60
1520125689.64,11115,7.63,71482.5,-15.99,-47.99,-48.21,0,*6D
1520125690.89,11116,7.63,71482.0,-16.01,-48.07,-48.21,0,*64
1520125692.13,11117,7.63,71484.8,-16.01,-48.41,-48.63,0,*61
1520125693.37,11118,7.63,71484.3,-15.99,-48.21,-48.35,0,*69
1520125694.62,11119,7.63,71482.0,-15.99,-48.21,-48.35,0,*68
1520125695.89,11120,7.63,71482.5,-15.97,-47.99,-48.13,0,*64
1520125697.16,11121,7.63,71480.5,-15.99,-48.13,-48.13,0,*66
1520125698.43,11122,7.63,71486.8,-16.01,-47.85,-47.79,0,*64
1520125699.72,11123,7.63,71484.0,-15.97,-47.79,-47.71,0,*62
1520125700.98,11124,7.63,71486.3,-15.97,-47.71,-47.65,0,*68